Weather History for Wink, TX

Change the Weather History Date:

Sunday, November 25, 2012

  Actual Average Record
Temperature  
Mean Temperature 56 °F -  
Max Temperature 80 °F 67 °F 86 °F (1965)
Min Temperature 33 °F 34 °F 8 °F (1938)
Degree Days  
Heating Degree Days 8    
Growing Degree Days 6 (Base 50)    
Moisture  
Dew Point 31 °F    
Average Humidity 45    
Maximum Humidity 76    
Minimum Humidity 13    
Precipitation  
Precipitation 0.00 in - - ()
Sea Level Pressure  
Sea Level Pressure 29.88 in    
Wind  
Wind Speed 7 mph (WSW)    
Max Wind Speed 15 mph    
Max Gust Speed 23 mph    
Visibility 10 miles    
Events      
Averages and records for this station are not official NWS values.
T = Trace of Precipitation, MM = Missing Value Source: NWS Daily Summary

Daily Weather History Graph

Daily Weather History Graph

Search for Another Location

Airport:

Trip Planner

Search our weather history database for the weather conditions in past years. The results will help you decide how hot, cold, wet, or windy it might be!

Date:

Astronomy

Nov. 25, 2012 Rise Set
Actual Time 7:30 AM CST 5:49 PM CST
Civil Twilight 7:03 AM CST 6:15 PM CST
Nautical Twilight 6:34 AM CST 6:45 PM CST
Astronomical Twilight 6:04 AM CST 7:15 PM CST
Moon 4:02 PM CST (11/25) 4:53 AM CST (11/25)
Length of Visible Light 11h 11m
Length of Day
10h 19m
Waxing Gibbous, 93% of the Moon is Illuminated
Nov 25
Waxing Gibbous
Nov 28
Full
Dec 6
Last Quarter
Dec 13
New
Dec 19
First Quarter

Hourly Weather History & Observations

Time (CST) Temp. Windchill Dew Point Humidity Pressure Visibility Wind Dir Wind Speed Gust Speed Precip Events Conditions
12:53 AM 44.1 °F 40.1 °F 33.1 °F 65% 29.97 in - SE 6.9 mph - N/A   Clear
1:53 AM 43.0 °F 38.2 °F 33.1 °F 68% 29.96 in - SE 8.1 mph - N/A   Clear
2:53 AM 41.0 °F 37.1 °F 33.1 °F 73% 29.94 in - SE 5.8 mph - N/A   Clear
3:53 AM 39.9 °F 33.9 °F 30.9 °F 70% 29.93 in - SE 9.2 mph - N/A   Clear
4:53 AM 39.0 °F 34.0 °F 30.9 °F 73% 29.93 in - SE 6.9 mph - N/A   Clear
5:53 AM 36.0 °F - 28.9 °F 76% 29.94 in - Calm Calm - N/A   Clear
6:53 AM 33.1 °F 28.7 °F 26.1 °F 75% 29.96 in - North 4.6 mph - N/A   Clear
7:53 AM 33.1 °F 30.0 °F 26.1 °F 75% 29.98 in - North 3.5 mph - N/A   Clear
8:53 AM 43.0 °F - 30.0 °F 60% 29.97 in - Calm Calm - N/A   Clear
9:53 AM 55.0 °F - 36.0 °F 49% 29.95 in - SW 3.5 mph - N/A   Clear
10:53 AM 66.0 °F - 39.0 °F 37% 29.93 in - West 13.8 mph - N/A   Clear
11:53 AM 71.1 °F - 39.0 °F 31% 29.90 in - West 10.4 mph - N/A   Clear
12:53 PM 77.0 °F - 35.1 °F 22% 29.84 in - West 15.0 mph 23.0 mph N/A   Clear
1:53 PM 79.0 °F - 30.9 °F 17% 29.80 in - West 11.5 mph 21.9 mph N/A   Clear
2:53 PM 80.1 °F - 25.0 °F 13% 29.78 in 10.0 mi West 10.4 mph 19.6 mph N/A   Clear
3:53 PM 80.1 °F - 25.0 °F 13% 29.77 in 10.0 mi WSW 13.8 mph - N/A   Clear
4:53 PM 79.0 °F - 28.9 °F 16% 29.77 in 10.0 mi West 13.8 mph - N/A   Clear
5:53 PM 73.0 °F - 30.0 °F 20% 29.79 in 10.0 mi West 10.4 mph - N/A   Clear
6:53 PM 63.0 °F - 30.0 °F 29% 29.83 in 10.0 mi WSW 8.1 mph - N/A   Clear
7:53 PM 60.1 °F - 30.0 °F 32% 29.85 in 10.0 mi WSW 4.6 mph - N/A   Clear
8:53 PM 55.9 °F - 30.0 °F 37% 29.85 in 10.0 mi WSW 3.5 mph - N/A   Clear
9:53 PM 55.9 °F - 30.0 °F 37% 29.84 in 10.0 mi West 3.5 mph - N/A   Clear
10:53 PM 51.1 °F - 28.9 °F 43% 29.83 in 10.0 mi SSW 4.6 mph - N/A   Clear
11:53 PM 48.0 °F - 28.0 °F 46% 29.83 in 10.0 mi SW 6.9 mph - N/A   Clear